Probability
0 0 0 0 0 0 0 0 0 0 0 0 0 0 0 0 0 0 0 0 0 0 1 1 2 2 2 1 0 0 0 0 0 0 0 0 0 0 0 0 0 0 0
0 0 0 0 0 0 0 0 0 0 0 0 0 0 0 0 0 0 0 0 0 0 1 1 1 1 1 0 0 0 0 0 0 0 0 0 0 0 0 0 0 0 0
0 0 0 0 0 0 0 0 0 0 0 0 0 0 0 0 0 0 0 0 0 0 1 1 0 0 0 0 0 0 0 0 0 0 0 0 0 0 0 0 0 0 0
0 0 0 0 0 0 0 0 0 0 0 0 0 0 0 0 0 0 0 0 0 0 0 0 0 0 0 0 0 0 0 0 0 0 0 0 0 0 0 0 0 0 0
0 1 2 1 0 0 0 0 1 0 0 0 0 0 0 0 0 0 0 0 0 0 0 0 0 0 0 0 0 0 0 0 0 0 0 0 0 0 0 0 0 0 0
0 1 2 1 0 0 0 0 0 0 0 0 0 0 0 0 0 0 0 0 0 0 0 0 0 0 0 0 0 0 0 0 0 0 0 0 0 0 0 0 0 0 0
1 2 3 2 0 0 0 1 1 0 0 0 0 0 0 0 0 0 0 0 0 0 0 0 0 0 0 0 0 0 0 0 0 0 0 0 0 0 0 0 0 0 0
1 3 4 2 0 0 1 2 2 1 0 0 0 0 0 0 0 0 0 0 0 0 0 0 0 0 0 0 0 0 0 0 0 0 0 0 0 0 0 0 0 0 0
2 4 5 2 0 0 1 1 1 1 0 0 0 0 0 0 0 0 0 0 0 0 0 0 0 0 0 0 0 0 0 0 0 0 0 0 0 0 0 0 0 0 0
6 7 6 3 1 0 0 0 0 0 0 0 0 0 0 0 0 0 0 0 0 0 0 0 0 0 0 0 0 0 0 0 0 0 0 0 0 0 0 0 0 0 0
13 12 10 6 3 1 0 0 0 0 0 0 0 0 0 0 0 0 0 0 0 0 0 0 0 0 0 0 0 0 0 0 0 0 0 0 0 0 0 0 0 0 0
17 16 13 9 6 3 1 2 4 5 3 2 1 2 1 0 0 0 0 0 0 0 0 0 0 0 0 0 0 0 0 0 0 0 0 0 0 0 0 0 0 0 0
16 15 13 11 8 5 4 7 11 12 8 3 2 3 3 2 1 1 1 1 0 0 0 0 0 0 0 0 0 0 0 0 0 1 1 0 0 0 0 0 0 0 0
15 14 13 13 11 9 11 14 16 16 10 5 4 5 5 3 2 3 3 2 1 1 1 0 0 0 0 0 0 0 0 0 1 2 1 0 0 0 0 0 0 0 0
15 14 13 12 12 13 18 19 17 14 11 9 7 6 4 2 2 5 5 3 1 0 0 0 0 0 0 0 0 0 0 0 1 2 2 0 0 0 0 0 0 0 0
13 13 13 12 11 14 18 18 14 11 10 10 8 5 3 2 3 6 6 3 1 0 0 0 0 0 0 0 0 1 1 1 1 2 1 0 0 0 0 0 0 0 0
11 10 11 10 11 14 14 12 11 10 9 9 8 7 5 4 4 4 4 2 1 1 0 1 1 1 0 0 1 2 2 2 1 1 1 0 0 0 0 0 0 0 0
10 9 9 9 11 13 13 11 10 11 10 9 9 8 7 6 5 3 2 2 1 1 0 1 1 1 0 0 1 2 3 3 1 0 0 0 0 0 0 0 0 0 0
10 10 9 8 9 13 15 16 15 14 12 9 9 9 8 7 6 3 2 2 2 1 0 0 0 0 0 0 1 2 2 2 2 1 0 0 0 0 0 0 0 0 0
12 12 11 10 11 15 19 21 19 15 12 9 9 8 6 6 4 3 4 4 4 2 1 0 0 0 0 0 0 1 1 1 2 1 0 0 0 0 0 0 0 0 0
13 13 14 15 16 19 22 23 20 14 10 9 9 7 4 3 3 3 5 7 6 3 1 0 0 0 0 0 0 0 0 0 1 1 0 0 0 0 0 0 0 0 0
12 13 15 17 18 19 20 20 17 12 9 9 8 7 5 3 2 3 6 8 6 3 1 0 0 0 0 0 0 0 0 0 0 0 0 0 0 0 0 0 0 0 0
11 12 14 17 17 16 15 14 13 11 9 8 8 8 6 4 3 3 5 6 5 3 1 0 0 0 0 0 0 0 0 0 0 0 0 0 0 0 0 0 0 0 0
12 12 14 16 17 15 13 10 10 8 6 6 7 6 5 3 3 3 3 3 2 1 1 0 0 0 0 1 1 1 0 0 0 0 0 0 0 0 0 0 0 1 1
13 13 14 16 18 15 12 10 8 5 3 5 7 5 4 3 3 3 3 2 1 1 0 0 0 0 0 1 2 1 0 0 0 0 0 0 0 0 0 0 0 1 1
11 12 13 15 17 16 11 8 7 5 3 5 7 5 4 4 3 3 3 3 2 2 1 0 0 0 0 1 2 1 0 0 0 0 0 0 0 0 0 0 0 1 1
Wind_Speed
12 15 16 14 13 13 14 14 14 14 14 13 13 13 12 12 12 12 12 12 12 12 12 12 12 12 12 12 12 12 12 12 12 13 14 14 14 14 13 14 13 14 15
15 17 16 14 14 14 14 14 14 14 14 13 13 13 12 11 11 11 11 11 11 12 12 12 12 12 12 12 12 12 12 12 12 13 14 14 13 12 11 9 9 13 14
16 17 17 14 14 14 14 14 14 14 14 13 13 12 12 11 11 11 11 11 12 12 13 12 12 12 12 12 12 12 12 12 12 11 11 11 13 11 11 13 15 14 14
16 16 16 17 15 15 14 14 14 14 13 13 12 12 12 11 11 11 11 12 12 12 12 12 12 12 12 12 12 11 11 11 10 9 7 9 11 12 12 13 13 13 14
16 15 17 17 16 15 14 13 13 13 13 13 12 12 11 11 11 11 11 12 11 12 12 12 11 11 11 11 11 11 11 9 6 5 8 8 10 12 12 13 12 12 13
16 16 18 16 16 15 14 13 13 13 13 12 12 11 11 11 11 11 11 12 11 11 11 11 11 11 10 11 10 10 10 7 7 7 7 8 10 11 12 12 12 12 12
15 15 18 16 16 15 14 13 13 12 12 12 11 11 11 11 11 11 11 11 11 11 11 10 10 10 10 10 10 9 7 4 3 7 7 7 10 10 11 11 11 11 11
14 14 16 16 15 15 14 13 13 12 12 12 11 11 11 11 11 10 10 10 11 10 10 10 10 9 9 9 9 8 6 5 6 7 7 9 11 9 10 11 11 11 11
13 13 14 14 14 14 13 13 12 12 11 11 11 10 10 10 10 10 10 10 10 9 9 9 9 8 8 8 8 7 4 4 3 6 7 8 10 9 10 10 10 10 10
11 12 12 12 12 13 13 13 12 12 11 10 11 10 10 10 10 9 10 9 9 9 8 8 8 7 7 7 6 6 5 6 4 7 5 9 9 9 9 9 9 9 9
10 9 10 11 11 11 11 13 12 12 11 10 10 10 9 8 9 8 9 9 8 8 8 7 7 6 5 7 6 5 7 3 5 4 5 11 9 8 8 8 9 9 9
12 11 9 10 10 10 9 10 8 9 9 7 7 8 6 4 4 6 10 7 7 7 7 6 5 6 7 6 8 7 4 3 4 4 7 10 8 8 8 8 8 8 8
13 11 10 9 9 9 6 7 5 4 6 6 7 5 4 4 4 5 5 6 6 7 6 7 7 4 2 1 1 3 1 1 2 3 8 9 7 8 7 7 7 7 7
12 11 10 9 8 7 6 5 5 5 5 5 6 6 5 3 3 3 2 4 3 3 2 2 2 2 1 2 2 1 2 1 1 2 7 9 7 7 7 8 8 8 8
12 11 10 9 8 7 6 5 5 5 5 5 5 4 4 4 3 3 2 2 2 2 3 2 1 2 2 3 2 2 1 1 1 1 5 9 8 7 7 7 7 8 8
12 11 10 10 9 7 6 5 4 5 4 5 5 5 4 3 3 3 3 2 2 2 1 2 2 2 2 1 2 2 2 1 1 1 2 7 9 8 7 7 7 8 8
12 11 10 10 9 8 7 7 5 4 5 4 4 5 4 3 3 3 2 3 2 2 2 2 2 2 2 2 2 2 2 1 1 1 2 2 5 8 8 8 8 8 9
11 11 10 9 10 9 7 6 5 4 5 4 4 4 4 3 3 3 2 2 2 2 2 2 2 2 1 1 1 1 1 1 2 2 2 2 2 3 7 8 7 7 9
11 11 10 9 10 9 8 6 5 4 4 4 4 3 4 4 3 3 2 2 3 2 2 2 2 1 1 1 1 2 1 1 2 2 1 2 2 2 2 6 7 6 7
10 10 11 10 9 9 7 6 5 5 4 4 4 4 4 4 4 3 2 2 3 2 2 1 1 1 1 1 1 1 1 1 2 2 2 2 2 2 2 2 4 5 6
11 11 11 10 10 8 7 7 6 6 5 4 4 5 5 4 4 2 2 3 2 2 1 2 2 3 2 1 2 2 2 2 2 1 1 1 1 1 1 1 2 2 4
12 12 12 12 11 10 7 5 4 5 4 4 4 5 5 5 4 3 2 2 2 2 2 2 2 1 1 2 2 2 3 3 3 2 1 2 1 1 1 2 2 2 2
12 12 11 12 12 10 9 7 6 5 5 5 5 5 5 5 4 3 3 2 1 2 2 2 2 2 2 2 1 2 2 1 3 3 2 2 2 1 1 1 1 2 3
12 12 12 12 12 11 10 9 10 7 6 6 5 5 6 5 5 4 4 3 1 1 2 2 2 1 2 2 2 1 2 2 2 2 4 3 3 2 1 0 1 1 1
12 12 12 12 11 11 11 10 9 7 6 6 6 7 6 6 5 5 4 3 2 1 2 1 1 1 1 1 1 2 1 1 3 2 2 3 3 2 2 2 1 1 1
13 12 12 12 12 12 11 11 10 9 8 9 8 8 7 6 5 6 5 4 3 2 2 2 1 2 1 1 1 1 1 1 1 1 1 2 2 2 2 2 1 1 1
Wind_Direction
151 140 141 146 142 137 134 134 132 131 127 125 124 122 119 114 109 107 107 109 111 111 111 111 111 112 111 109 109 108 109 110 110 111 110 110 112 114 119 126 131 112 114
146 139 144 146 143 139 135 133 132 132 130 127 125 122 119 116 112 110 108 110 112 111 110 109 108 108 108 107 107 108 110 112 113 116 120 117 114 115 117 113 95 108 119
145 141 149 147 143 139 136 134 134 133 131 129 126 122 119 117 114 111 108 107 108 108 107 106 107 107 106 106 107 108 111 113 117 130 150 130 118 116 112 105 105 117 117
145 145 149 145 145 141 139 136 135 134 132 129 126 123 120 119 116 111 108 108 108 107 107 107 106 105 105 107 109 111 112 115 128 169 149 118 119 116 116 115 118 121 119
147 145 138 148 145 142 140 138 137 135 134 130 127 125 123 120 116 111 110 108 107 108 107 106 106 104 106 108 111 114 113 119 158 184 105 108 109 119 121 121 121 122 121
150 145 140 150 146 145 144 141 139 138 135 132 129 126 124 120 116 112 111 111 108 107 107 107 107 106 107 110 113 115 119 146 193 113 112 117 115 123 124 124 123 121 122
149 143 142 150 148 148 148 146 143 140 137 134 130 126 122 119 116 114 110 110 110 109 107 108 106 106 109 112 114 117 127 188 143 111 113 107 106 122 126 127 125 124 125
148 142 139 148 149 150 150 148 146 142 139 135 130 126 122 119 117 114 111 109 109 108 107 107 106 106 110 113 117 122 138 225 131 113 113 106 110 124 127 128 127 126 126
150 145 146 153 154 153 151 149 146 143 140 137 132 127 122 119 117 115 113 112 110 108 108 108 107 104 106 111 117 122 134 276 133 113 115 108 119 128 129 129 130 131 131
153 150 151 155 156 158 154 151 148 142 140 138 135 131 127 127 125 125 132 117 115 112 110 110 110 108 107 112 118 128 155 227 134 126 114 112 129 137 136 136 135 136 135
156 152 156 155 158 161 156 150 152 147 144 147 143 141 159 156 141 150 113 121 125 121 117 115 116 119 136 134 131 152 196 200 115 104 98 113 142 147 144 144 142 141 141
163 160 162 160 160 164 160 151 161 159 153 162 145 157 163 133 132 123 116 127 129 130 135 130 135 171 212 161 150 192 205 152 126 126 110 128 150 156 153 152 152 150 150
165 163 163 164 166 166 155 157 158 150 149 154 148 154 144 150 149 145 144 148 153 169 166 154 184 192 181 110 164 182 147 142 126 130 123 144 160 162 161 163 165 163 163
167 166 164 163 166 166 158 153 156 157 158 155 148 168 157 155 149 138 146 144 162 165 159 182 191 153 168 170 193 199 165 211 131 104 125 154 170 171 172 176 177 176 177
169 168 165 167 166 162 158 167 160 164 158 148 151 158 165 164 161 145 139 160 178 158 171 180 186 163 190 188 197 189 214 202 175 165 130 160 173 179 184 188 188 185 185
171 168 166 170 166 163 161 161 160 162 155 159 161 155 171 158 152 155 164 171 173 179 163 190 170 186 205 184 200 192 235 210 174 195 154 161 174 181 188 196 201 198 193
173 169 168 170 164 166 166 166 163 162 164 161 153 152 159 161 153 174 167 177 169 170 169 192 175 199 206 198 198 193 208 216 160 184 194 176 171 180 193 204 208 205 199
173 169 172 170 164 167 165 168 165 167 160 159 157 149 151 149 162 189 183 170 164 186 184 172 203 200 187 211 205 228 192 181 182 194 191 186 194 185 185 195 210 211 202
174 170 170 167 164 165 161 163 162 154 155 154 149 143 144 153 167 192 184 142 195 195 194 214 154 213 185 189 191 179 195 185 182 197 185 185 183 205 195 174 191 200 204
174 172 169 165 162 161 157 157 156 150 151 147 144 140 151 154 160 181 170 164 205 190 186 182 152 178 199 206 235 122 170 163 185 165 204 176 179 191 200 177 180 181 188
174 173 171 166 163 164 163 166 163 159 155 150 153 149 155 150 148 173 156 149 211 168 180 192 202 176 188 189 225 195 172 158 138 165 180 179 155 156 151 188 208 197 181
178 175 170 169 169 173 166 158 154 145 149 143 140 145 151 146 152 157 145 168 163 153 168 188 215 240 186 200 242 230 204 169 164 112 130 136 102 133 175 190 185 191 216
180 179 175 171 171 171 160 156 149 148 154 152 157 157 152 151 152 130 145 137 150 196 150 187 205 221 208 185 255 269 256 195 153 140 127 106 106 97 121 109 175 185 202
181 177 174 172 172 168 169 170 170 173 169 165 168 155 154 159 156 149 146 137 167 151 134 193 123 228 228 195 169 257 323 354 265 161 156 137 138 132 85 43 83 152 186
176 175 173 172 173 174 179 174 179 177 169 162 163 153 161 154 160 156 151 148 159 151 109 71 98 298 235 249 205 187 169 198 257 247 152 154 155 133 118 109 81 83 113
175 174 171 172 173 175 180 179 185 176 171 166 167 163 171 160 162 160 158 156 165 138 130 126 126 126 21 11 301 256 236 239 243 247 191 181 154 125 116 100 113 97 110